PUA257 MMUN-RJBB

Flight info

Callsign PUA257
Flight time N/A
Altitude 28000
Route NOSUG2A NOSUG UT27 PISAD L333 HRV/N0507F300 J58 SPS J168 LAA J20 OCS/N0492F320 J163 PIH J20 SEA Q902 ANN J195 FLIPS/N0482F340 J195 BKA J605 MDO Q10 ENM B241 RUSOR/K0913F340 T564 BERUD/K0913F360 T564 UMOLA A956 PAKLI T565 ANIMO/N0495F360 Y114 AWE Y116 CHE Y12 HWE/N0485F380 Y14 GOLDO Y381 KMC Y382 WAKIT Y201 TRACY
Aircraft B77W/H-SDE1E2E3FGHIJ2J3J4J5M1RWXY/LB1D1

Departure

Time N/A
Airport Cancún International Airport (MMUN)

Arrival

Time 2026-04-29 16:54
Airport Kansai International Airport (RJBB)
Time Latitude Longitude Altitude Speed Heading
2026-04-29 15:18 42.29854 141.31207 36102 ft 447 kts 225°
2026-04-29 15:19 42.24744 141.26487 36098 ft 447 kts 226°
2026-04-29 15:19 42.19601 141.21747 36097 ft 447 kts 226°
2026-04-29 15:20 42.14462 141.17020 36104 ft 447 kts 226°
2026-04-29 15:20 42.09319 141.12298 36104 ft 447 kts 226°
2026-04-29 15:21 42.04206 141.07614 36112 ft 447 kts 226°
2026-04-29 15:21 41.99066 141.02914 36104 ft 446 kts 226°
2026-04-29 15:22 41.93925 140.98223 36107 ft 446 kts 226°
2026-04-29 15:22 41.88822 140.93574 36120 ft 445 kts 226°
2026-04-29 15:23 41.83692 140.88910 36113 ft 445 kts 226°
2026-04-29 15:23 41.78560 140.84259 36112 ft 445 kts 225°
2026-04-29 15:24 41.73091 140.80148 36121 ft 453 kts 219°
2026-04-29 15:24 41.67480 140.76296 36123 ft 452 kts 219°
2026-04-29 15:25 41.61881 140.72444 36121 ft 451 kts 219°
2026-04-29 15:25 41.56310 140.68600 36123 ft 450 kts 219°
2026-04-29 15:26 41.50784 140.64789 36123 ft 449 kts 220°
2026-04-29 15:26 41.45242 140.60973 36131 ft 447 kts 220°
2026-04-29 15:27 41.39727 140.57185 36128 ft 445 kts 220°
2026-04-29 15:27 41.34232 140.53417 36129 ft 443 kts 220°
2026-04-29 15:28 41.28763 140.49674 36132 ft 441 kts 220°
2026-04-29 15:28 41.23320 140.45956 36139 ft 439 kts 221°
2026-04-29 15:29 41.17935 140.42283 36133 ft 437 kts 221°
2026-04-29 15:30 41.07552 140.35222 36141 ft 435 kts 221°
2026-04-29 15:30 41.02161 140.31567 36143 ft 434 kts 221°
2026-04-29 15:31 40.96800 140.27937 36137 ft 432 kts 222°
2026-04-29 15:31 40.91454 140.24324 36146 ft 431 kts 222°
2026-04-29 15:32 40.86124 140.20729 36148 ft 429 kts 223°
2026-04-29 15:32 40.80848 140.17177 36156 ft 427 kts 223°
2026-04-29 15:33 40.75554 140.13618 36159 ft 426 kts 223°
2026-04-29 15:33 40.71158 140.10668 36157 ft 425 kts 223°
2026-04-29 15:34 40.65908 140.07146 36152 ft 422 kts 223°
2026-04-29 15:34 40.60652 140.03635 36171 ft 423 kts 223°
2026-04-29 15:35 40.55405 140.00135 36181 ft 422 kts 223°
2026-04-29 15:35 40.50172 139.96645 36168 ft 420 kts 223°
2026-04-29 15:36 40.44965 139.93180 36161 ft 419 kts 224°
2026-04-29 15:36 40.39798 139.89711 36170 ft 416 kts 224°
2026-04-29 15:37 40.34680 139.86251 36171 ft 416 kts 224°
2026-04-29 15:37 40.29539 139.82784 36171 ft 415 kts 224°
2026-04-29 15:38 40.24392 139.79324 36179 ft 414 kts 224°
2026-04-29 15:38 40.19266 139.75882 36177 ft 414 kts 224°
2026-04-29 15:39 40.14143 139.72449 36180 ft 413 kts 224°
2026-04-29 15:39 40.09026 139.69024 36176 ft 413 kts 224°
2026-04-29 15:40 40.03941 139.65634 36178 ft 413 kts 224°
2026-04-29 15:40 39.98807 139.62284 36173 ft 413 kts 223°
2026-04-29 15:41 39.93658 139.58951 36168 ft 412 kts 223°
2026-04-29 15:41 39.88523 139.55626 36177 ft 412 kts 223°
2026-04-29 15:42 39.83389 139.52301 36180 ft 412 kts 223°
2026-04-29 15:42 39.78260 139.48983 36177 ft 411 kts 223°
2026-04-29 15:43 39.73162 139.45690 36184 ft 411 kts 223°
2026-04-29 15:43 39.68030 139.42380 36184 ft 411 kts 223°
2026-04-29 15:44 39.62898 139.39075 36186 ft 412 kts 223°
2026-04-29 15:44 39.57769 139.35779 36184 ft 412 kts 223°
2026-04-29 15:45 39.52624 139.32478 36181 ft 412 kts 223°
2026-04-29 15:45 39.47465 139.29174 36181 ft 413 kts 223°
2026-04-29 15:46 39.42334 139.25892 36176 ft 413 kts 222°
2026-04-29 15:46 39.37167 139.22594 36183 ft 414 kts 222°
2026-04-29 15:47 39.31996 139.19298 36178 ft 414 kts 222°
2026-04-29 15:47 39.26819 139.16004 36179 ft 415 kts 222°
2026-04-29 15:48 39.21640 139.12714 36184 ft 415 kts 222°
2026-04-29 15:48 39.16448 139.09422 36190 ft 415 kts 221°
2026-04-29 15:49 39.11288 139.06156 36196 ft 416 kts 221°
2026-04-29 15:49 39.06094 139.02873 36193 ft 416 kts 221°
2026-04-29 15:50 39.00889 138.99588 36192 ft 416 kts 221°
2026-04-29 15:50 38.95693 138.96315 36185 ft 416 kts 221°
2026-04-29 15:51 38.90494 138.93045 36185 ft 416 kts 221°
2026-04-29 15:51 38.85285 138.89774 36192 ft 416 kts 221°
2026-04-29 15:52 38.80104 138.86526 36195 ft 416 kts 221°
2026-04-29 15:52 38.74888 138.83262 36194 ft 416 kts 221°
2026-04-29 15:53 38.69668 138.80000 36196 ft 416 kts 221°
2026-04-29 15:53 38.64456 138.76748 36196 ft 417 kts 221°
2026-04-29 15:54 38.59270 138.73518 36203 ft 417 kts 221°
2026-04-29 15:54 38.54054 138.70274 36192 ft 417 kts 220°
2026-04-29 15:55 38.48832 138.67032 36193 ft 417 kts 220°
2026-04-29 15:55 38.43609 138.63794 36193 ft 418 kts 220°
2026-04-29 15:56 38.38580 138.60682 36197 ft 418 kts 220°
2026-04-29 15:56 38.33366 138.57461 36205 ft 418 kts 220°
2026-04-29 15:57 38.28126 138.54228 36195 ft 418 kts 220°
2026-04-29 15:57 38.22887 138.51001 36195 ft 418 kts 220°
2026-04-29 15:58 38.17636 138.47771 36197 ft 418 kts 220°
2026-04-29 15:58 38.12422 138.44570 36196 ft 419 kts 220°
2026-04-29 15:59 38.07472 138.40946 36203 ft 403 kts 227°
2026-04-29 15:59 38.03067 138.36614 36202 ft 397 kts 234°
2026-04-29 16:00 37.99094 138.31757 36203 ft 396 kts 235°
2026-04-29 16:00 37.95162 138.26876 36195 ft 395 kts 235°
2026-04-29 16:01 37.91227 138.22002 36199 ft 395 kts 235°
2026-04-29 16:01 37.87317 138.17175 36198 ft 395 kts 235°
2026-04-29 16:02 37.83371 138.12316 36200 ft 395 kts 234°
2026-04-29 16:02 37.79421 138.07461 36202 ft 396 kts 234°
2026-04-29 16:03 37.75464 138.02606 36200 ft 396 kts 234°
2026-04-29 16:03 37.71521 137.97777 36201 ft 397 kts 234°
2026-04-29 16:04 37.67553 137.92923 36199 ft 397 kts 234°
2026-04-29 16:04 37.63576 137.88066 36198 ft 398 kts 234°
2026-04-29 16:05 37.59593 137.83211 36193 ft 398 kts 234°
2026-04-29 16:05 37.55604 137.78354 36201 ft 399 kts 234°
2026-04-29 16:06 37.51607 137.73496 36196 ft 399 kts 234°
2026-04-29 16:06 37.47608 137.68643 36195 ft 400 kts 234°
2026-04-29 16:07 37.43595 137.63781 36196 ft 400 kts 233°
2026-04-29 16:07 37.39606 137.58956 36197 ft 401 kts 233°
2026-04-29 16:08 37.35584 137.54098 36196 ft 401 kts 233°
2026-04-29 16:08 37.31562 137.49247 36194 ft 401 kts 233°
2026-04-29 16:09 37.27525 137.44386 36194 ft 401 kts 233°
2026-04-29 16:09 37.23490 137.39535 36192 ft 402 kts 233°
2026-04-29 16:10 37.19471 137.34712 36184 ft 402 kts 233°
2026-04-29 16:10 37.15415 137.29850 36189 ft 403 kts 233°
2026-04-29 16:11 37.11357 137.24994 36191 ft 403 kts 233°
2026-04-29 16:11 37.07324 137.20175 36183 ft 403 kts 233°
2026-04-29 16:12 37.03261 137.15330 36188 ft 403 kts 233°
2026-04-29 16:12 36.99188 137.10478 36182 ft 404 kts 233°
2026-04-29 16:13 36.95118 137.05637 36184 ft 404 kts 233°
2026-04-29 16:13 36.91036 137.00790 36180 ft 404 kts 233°
2026-04-29 16:14 36.86977 136.95975 36178 ft 404 kts 233°
2026-04-29 16:14 36.82895 136.91143 36178 ft 404 kts 233°
2026-04-29 16:15 36.78815 136.86325 36169 ft 404 kts 233°
2026-04-29 16:15 36.74747 136.81534 36179 ft 404 kts 233°
2026-04-29 16:16 36.70652 136.76717 36169 ft 405 kts 232°
2026-04-29 16:16 36.66546 136.71891 36165 ft 405 kts 232°
2026-04-29 16:17 36.62447 136.67081 36163 ft 405 kts 232°
2026-04-29 16:17 36.58345 136.62275 36160 ft 405 kts 232°
2026-04-29 16:18 36.54933 136.58283 36158 ft 405 kts 232°
2026-04-29 16:18 36.50163 136.52710 36159 ft 405 kts 232°
2026-04-29 16:19 36.46051 136.47913 36158 ft 405 kts 232°
2026-04-29 16:19 36.42636 136.43934 36154 ft 405 kts 232°
2026-04-29 16:20 36.38516 136.39161 36153 ft 406 kts 232°
2026-04-29 16:20 36.34300 136.34470 36156 ft 407 kts 231°
2026-04-29 16:21 36.30064 136.29794 36153 ft 407 kts 231°
2026-04-29 16:21 36.25825 136.25102 36155 ft 408 kts 231°
2026-04-29 16:22 36.21615 136.20437 36147 ft 408 kts 231°
2026-04-29 16:22 36.17375 136.15747 36148 ft 409 kts 231°
2026-04-29 16:23 36.13128 136.11060 36149 ft 409 kts 231°
2026-04-29 16:23 36.08862 136.06375 36147 ft 410 kts 231°
2026-04-29 16:24 36.04594 136.01697 36153 ft 410 kts 231°
2026-04-29 16:24 36.00348 135.97045 36147 ft 410 kts 231°
2026-04-29 16:25 35.96079 135.92373 36137 ft 410 kts 231°
2026-04-29 16:25 35.91797 135.87696 36148 ft 411 kts 231°
2026-04-29 16:26 35.87512 135.83021 36145 ft 411 kts 231°
2026-04-29 16:26 35.83221 135.78347 36143 ft 412 kts 231°
2026-04-29 16:27 35.78919 135.73668 36144 ft 412 kts 231°
2026-04-29 16:27 35.74613 135.68992 36143 ft 413 kts 231°
2026-04-29 16:28 35.70334 135.64351 36148 ft 413 kts 231°
2026-04-29 16:28 35.66017 135.59675 36150 ft 413 kts 231°
2026-04-29 16:29 35.61701 135.55012 36149 ft 413 kts 231°
2026-04-29 16:29 35.57375 135.50350 36149 ft 413 kts 231°
2026-04-29 16:30 35.53049 135.45693 36137 ft 413 kts 231°
2026-04-29 16:30 35.48724 135.41042 36155 ft 414 kts 231°
2026-04-29 16:31 35.44388 135.36387 36151 ft 414 kts 230°
2026-04-29 16:31 35.40048 135.31735 36148 ft 414 kts 231°
2026-04-29 16:32 35.35713 135.27093 36149 ft 414 kts 230°
2026-04-29 16:32 35.31370 135.22450 36151 ft 414 kts 230°
2026-04-29 16:33 35.24798 135.15427 34435 ft 426 kts 230°
2026-04-29 16:33 35.22551 135.13033 33427 ft 428 kts 230°
2026-04-29 16:33 35.20305 135.10644 32413 ft 429 kts 229°
2026-04-29 16:34 35.18047 135.08243 31458 ft 429 kts 229°
2026-04-29 16:34 35.15808 135.05866 30743 ft 425 kts 229°
2026-04-29 16:34 35.13582 135.03503 29975 ft 422 kts 229°
2026-04-29 16:34 35.11373 135.01161 29187 ft 419 kts 228°
2026-04-29 16:35 35.09214 134.98868 28263 ft 415 kts 226°
2026-04-29 16:35 35.07031 134.96571 27582 ft 415 kts 225°
2026-04-29 16:35 35.04666 134.94499 27094 ft 421 kts 219°
2026-04-29 16:35 35.02142 134.92664 26407 ft 422 kts 216°
2026-04-29 16:36 34.99540 134.91020 25781 ft 421 kts 212°
2026-04-29 16:36 34.96822 134.89668 25133 ft 422 kts 208°
2026-04-29 16:36 34.94064 134.88451 24487 ft 420 kts 207°
2026-04-29 16:36 34.91324 134.87259 23839 ft 418 kts 207°
2026-04-29 16:37 34.88589 134.86055 23100 ft 416 kts 207°
2026-04-29 16:37 34.85882 134.84855 22424 ft 412 kts 207°
2026-04-29 16:37 34.83201 134.83671 21782 ft 410 kts 207°
2026-04-29 16:37 34.81383 134.82872 21347 ft 408 kts 207°
2026-04-29 16:38 34.77861 134.81328 20534 ft 404 kts 207°
2026-04-29 16:38 34.75222 134.80169 19929 ft 401 kts 207°
2026-04-29 16:38 34.72609 134.79024 19335 ft 399 kts 207°
2026-04-29 16:38 34.70073 134.77764 18718 ft 384 kts 217°
2026-04-29 16:39 34.68041 134.75778 18138 ft 369 kts 233°
2026-04-29 16:39 34.66525 134.73309 17495 ft 362 kts 242°
2026-04-29 16:39 34.65444 134.70577 16876 ft 357 kts 254°
2026-04-29 16:39 34.64893 134.67652 16234 ft 357 kts 259°
2026-04-29 16:40 34.64429 134.64678 15826 ft 359 kts 259°
2026-04-29 16:40 34.63968 134.61699 15524 ft 357 kts 259°
2026-04-29 16:40 34.63502 134.58748 15220 ft 356 kts 259°
2026-04-29 16:40 34.63026 134.55796 14851 ft 356 kts 259°
2026-04-29 16:41 34.62543 134.52847 14483 ft 357 kts 259°
2026-04-29 16:41 34.62053 134.49880 14129 ft 358 kts 258°
2026-04-29 16:41 34.61537 134.46976 13613 ft 352 kts 253°
2026-04-29 16:41 34.60329 134.44407 12910 ft 357 kts 228°
2026-04-29 16:42 34.58249 134.42740 12329 ft 364 kts 203°
2026-04-29 16:42 34.55758 134.42112 11848 ft 367 kts 189°
2026-04-29 16:42 34.53240 134.42064 11741 ft 357 kts 180°
2026-04-29 16:42 34.50813 134.42490 11643 ft 348 kts 170°
2026-04-29 16:43 34.48573 134.43517 11558 ft 342 kts 155°
2026-04-29 16:43 34.46661 134.45202 11460 ft 336 kts 141°
2026-04-29 16:43 34.45140 134.47308 11372 ft 330 kts 126°
2026-04-29 16:43 34.44161 134.49779 11269 ft 319 kts 113°
2026-04-29 16:44 34.43385 134.52264 11123 ft 312 kts 113°
2026-04-29 16:44 34.42631 134.54697 10936 ft 306 kts 113°
2026-04-29 16:44 34.41884 134.57102 10671 ft 303 kts 113°
2026-04-29 16:44 34.41150 134.59445 10323 ft 296 kts 113°
2026-04-29 16:45 34.40419 134.61766 9631 ft 294 kts 113°
2026-04-29 16:45 34.39689 134.64074 8898 ft 292 kts 113°
2026-04-29 16:45 34.38965 134.66355 8255 ft 288 kts 113°
2026-04-29 16:45 34.38475 134.67895 7974 ft 291 kts 113°
2026-04-29 16:46 34.37806 134.69994 7668 ft 291 kts 113°
2026-04-29 16:46 34.37078 134.72278 7355 ft 290 kts 112°
2026-04-29 16:46 34.36353 134.74555 7036 ft 290 kts 112°
2026-04-29 16:46 34.35628 134.76831 6714 ft 289 kts 112°
2026-04-29 16:47 34.34914 134.79073 6390 ft 289 kts 112°
2026-04-29 16:47 34.34190 134.81344 6064 ft 288 kts 112°
2026-04-29 16:47 34.33470 134.83604 5750 ft 286 kts 112°
2026-04-29 16:47 34.32756 134.85842 5444 ft 285 kts 112°
2026-04-29 16:48 34.32054 134.88042 5245 ft 279 kts 112°
2026-04-29 16:48 34.31372 134.90177 5094 ft 262 kts 112°
2026-04-29 16:48 34.30743 134.92144 4868 ft 243 kts 111°
2026-04-29 16:48 34.30504 134.94101 4595 ft 232 kts 79°
2026-04-29 16:49 34.30872 134.95982 4395 ft 231 kts 74°
2026-04-29 16:49 34.31289 134.97876 4123 ft 233 kts 73°
2026-04-29 16:49 34.31706 134.99761 3862 ft 230 kts 73°
2026-04-29 16:49 34.32122 135.01629 3669 ft 229 kts 75°
2026-04-29 16:50 34.32532 135.03481 3406 ft 226 kts 75°
2026-04-29 16:50 34.32947 135.05277 3123 ft 222 kts 68°
2026-04-29 16:50 34.33703 135.06844 2925 ft 210 kts 55°
2026-04-29 16:50 34.34564 135.08252 2680 ft 206 kts 52°
2026-04-29 16:51 34.35458 135.09597 2452 ft 203 kts 52°
2026-04-29 16:51 34.36321 135.10881 2223 ft 189 kts 52°
2026-04-29 16:51 34.37122 135.12072 1938 ft 177 kts 52°
2026-04-29 16:51 34.37863 135.13176 1720 ft 159 kts 52°
2026-04-29 16:52 34.38543 135.14190 1551 ft 153 kts 52°
2026-04-29 16:52 34.39213 135.15181 1424 ft 152 kts 52°
2026-04-29 16:52 34.39893 135.16185 1296 ft 157 kts 53°
2026-04-29 16:52 34.40550 135.17197 992 ft 153 kts 52°
2026-04-29 16:53 34.41119 135.18052 710 ft 148 kts 51°
2026-04-29 16:53 34.41760 135.18992 415 ft 143 kts 51°
2026-04-29 16:53 34.42364 135.19896 219 ft 136 kts 51°
2026-04-29 16:53 34.42967 135.20772 99 ft 136 kts 53°
2026-04-29 16:54 34.43536 135.21624 50 ft 125 kts 52°
2026-04-29 16:54 34.44016 135.22347 48 ft 92 kts 51°
2026-04-29 16:54 34.44320 135.22796 48 ft 22 kts 50°
2026-04-29 16:54 34.44374 135.22969 48 ft 22 kts 81°
2026-04-29 16:55 34.44390 135.23086 48 ft 10 kts 81°
2026-04-29 16:55 34.44369 135.23155 48 ft 9 kts 155°
2026-04-29 16:55 34.44311 135.23130 50 ft 10 kts 223°
2026-04-29 16:55 34.44264 135.23067 47 ft 10 kts 229°
2026-04-29 16:56 34.44215 135.22998 53 ft 11 kts 230°
2026-04-29 16:56 34.44167 135.22926 47 ft 11 kts 231°
2026-04-29 16:56 34.44119 135.22854 50 ft 11 kts 232°
2026-04-29 16:56 34.44072 135.22781 51 ft 11 kts 232°
2026-04-29 16:57 34.44026 135.22710 51 ft 11 kts 232°
2026-04-29 16:57 34.43977 135.22636 48 ft 11 kts 231°
2026-04-29 16:57 34.43928 135.22563 50 ft 12 kts 231°
2026-04-29 16:57 34.43877 135.22503 49 ft 10 kts 202°
2026-04-29 16:58 34.43808 135.22529 50 ft 11 kts 146°
2026-04-29 16:58 34.43730 135.22602 49 ft 21 kts 142°
2026-04-29 16:58 34.43585 135.22741 51 ft 28 kts 141°
2026-04-29 16:58 34.43434 135.22888 48 ft 28 kts 141°
2026-04-29 16:59 34.43286 135.23032 48 ft 28 kts 141°
2026-04-29 16:59 34.43136 135.23179 49 ft 28 kts 141°
2026-04-29 16:59 34.43013 135.23297 48 ft 14 kts 141°
2026-04-29 16:59 34.42978 135.23361 48 ft 10 kts 91°
2026-04-29 17:00 34.43006 135.23438 51 ft 10 kts 54°
2026-04-29 17:00 34.43033 135.23484 51 ft 10 kts 60°
2026-04-29 17:00 34.43036 135.23551 48 ft 8 kts 108°
2026-04-29 17:00 34.43008 135.23610 48 ft 8 kts 126°
2026-04-29 17:01 34.42984 135.23665 51 ft 6 kts 111°
2026-04-29 17:01 34.42979 135.23682 53 ft 0 kts 109°
2026-04-29 17:01 34.42979 135.23683 53 ft 0 kts 109°